Weather History for Garden City, KS

Change the Weather History Date:

Wednesday, February 27, 2013

  Actual Average Record
Temperature  
Mean Temperature 29 °F 38 °F  
Max Temperature 38 °F 52 °F 76 °F (1972)
Min Temperature 20 °F 25 °F -4 °F (1962)
Degree Days  
Heating Degree Days 36 27  
Month to date heating degree days 845 820  
Since 1 July heating degree days 3869 4000  
Cooling Degree Days 0 0  
Month to date cooling degree days 0 0  
Year to date cooling degree days 0 0  
Moisture  
Dew Point 23 °F    
Average Humidity 74    
Maximum Humidity 88    
Minimum Humidity 59    
Precipitation  
Precipitation 0.00 in 0.02 in 0.50 in (1948)
Month to date precipitation 0.21 0.52  
Year to date precipitation 0.34 0.86  
Sea Level Pressure  
Sea Level Pressure 30.19 in    
Wind  
Wind Speed 15 mph (NNW)    
Max Wind Speed 37 mph    
Max Gust Speed 43 mph    
Visibility 10 miles    
Events      
T = Trace of Precipitation, MM = Missing Value Source: NWS Daily Summary

Daily Weather History Graph

Daily Weather History Graph

Search for Another Location

Airport:

Trip Planner

Search our weather history database for the weather conditions in past years. The results will help you decide how hot, cold, wet, or windy it might be!

Date:

Astronomy

Feb. 27, 2013 Rise Set
Actual Time 7:16 AM CST 6:34 PM CST
Civil Twilight 6:50 AM CST 7:01 PM CST
Nautical Twilight 6:20 AM CST 7:31 PM CST
Astronomical Twilight 5:49 AM CST 8:02 PM CST
Moon 8:54 PM CST (2/27) 7:56 AM CST (2/27)
Length of Visible Light 12h 10m
Length of Day
11h 17m
Waning Gibbous, 96% of the Moon is Illuminated
Feb 27
Waning Gibbous
Mar 4
Last Quarter
Mar 11
New
Mar 19
First Quarter
Mar 27
Full

Hourly Weather History & Observations

Time (CST) Temp. Windchill Dew Point Humidity Pressure Visibility Wind Dir Wind Speed Gust Speed Precip Events Conditions
12:54 AM 21.0 °F 10.6 °F 18.0 °F 88% 30.04 in 10.0 mi NW 9.2 mph - N/A   Clear
1:54 AM 21.0 °F 12.4 °F 18.0 °F 88% 30.06 in 10.0 mi WNW 6.9 mph - N/A   Clear
2:54 AM 23.0 °F 11.7 °F 18.0 °F 81% 30.06 in 10.0 mi NNW 11.5 mph - N/A   Clear
3:54 AM 23.0 °F 10.6 °F 17.1 °F 78% 30.06 in 10.0 mi NW 13.8 mph - N/A   Clear
4:54 AM 23.0 °F 9.6 °F 17.1 °F 78% 30.09 in 10.0 mi NW 16.1 mph - N/A   Mostly Cloudy
5:54 AM 24.1 °F 11.5 °F 19.0 °F 81% 30.10 in 10.0 mi NW 15.0 mph - N/A   Clear
6:54 AM 25.0 °F 13.1 °F 21.0 °F 85% 30.14 in 10.0 mi NW 13.8 mph - N/A   Clear
7:54 AM 28.0 °F 16.5 °F 24.1 °F 85% 30.15 in 10.0 mi NW 15.0 mph - N/A   Clear
8:54 AM 32.0 °F 20.5 °F 26.1 °F 79% 30.18 in 10.0 mi NNW 18.4 mph - N/A   Clear
9:54 AM 35.1 °F 22.2 °F 27.0 °F 72% 30.21 in 10.0 mi North 27.6 mph 39.1 mph N/A   Clear
10:54 AM 35.1 °F 22.0 °F 25.0 °F 67% 30.23 in 10.0 mi NNW 28.8 mph 42.6 mph N/A   Partly Cloudy
11:54 AM 35.1 °F 22.0 °F 24.1 °F 64% 30.25 in 10.0 mi North 28.8 mph 35.7 mph N/A   Clear
12:54 PM 36.0 °F 25.0 °F 25.0 °F 64% 30.26 in 10.0 mi North 20.7 mph - N/A   Scattered Clouds
1:54 PM 36.0 °F 26.0 °F 26.1 °F 67% 30.24 in 10.0 mi North 17.3 mph - N/A   Mostly Cloudy
2:54 PM 37.0 °F 25.9 °F 25.0 °F 62% 30.24 in 10.0 mi NNW 23.0 mph 26.5 mph N/A   Partly Cloudy
3:54 PM 37.9 °F 28.2 °F 26.1 °F 62% 30.23 in 10.0 mi North 18.4 mph - N/A   Partly Cloudy
4:54 PM 37.0 °F 28.1 °F 27.0 °F 67% 30.24 in 10.0 mi North 15.0 mph - N/A   Partly Cloudy
5:54 PM 35.1 °F 25.9 °F 26.1 °F 70% 30.24 in 10.0 mi NNE 13.8 mph - N/A   Clear
6:54 PM 30.0 °F 23.2 °F 25.0 °F 82% 30.26 in 10.0 mi North 6.9 mph - N/A   Clear
7:54 PM 28.4 °F 21.2 °F 23.0 °F 80% 30.20 in 10.0 mi North 6.9 mph - N/A   Clear
8:54 PM 27.0 °F 21.6 °F 23.0 °F 85% 30.27 in 10.0 mi North 4.6 mph - N/A   Clear
9:54 PM 25.0 °F 18.1 °F 21.9 °F 88% 30.27 in 10.0 mi WNW 5.8 mph - N/A   Clear
10:54 PM 24.1 °F 16.0 °F 21.0 °F 88% 30.27 in 10.0 mi WNW 6.9 mph - N/A   Clear
11:54 PM 24.8 °F 16.1 °F 21.2 °F 86% 30.20 in 10.0 mi WNW 8.1 mph - N/A   Clear